Simultaneous Nadir Overpasses (SNOs) Predictions

Prediction of SNOs between LANDSAT-8 and METOP-A Satellite Orbit:

Table of predicted SNOs for the next 14.0 days since TLE Epoch: 10/2/2021
Index Date (LANDSAT-8) Time (LANDSAT-8) Lat,Lon (LANDSAT-8) SZA (LANDSAT-8 ) Date (METOP-A) Time (METOP-A) Lat,Lon (METOP-A) SZA (METOP-A ) Distance(km) Time Diff (sec)
1 10/04/2021 16:23:09 -81.32, 157.51 91.45 10/04/2021 16:22:18 -81.32, 157.55 91.47 0.85 51
2 10/04/2021 17:12:35 81.33, -34.71 88.58 10/04/2021 17:12:58 81.31, -34.85 88.57 2.79 23
3 10/07/2021 11:57:25 -81.32,-136.00 90.35 10/07/2021 11:56:38 -81.32,-136.12 90.38 2.11 47
4 10/07/2021 12:46:52 81.31, 31.38 89.63 10/07/2021 12:47:18 81.31, 31.46 89.66 1.48 26
5 10/10/2021 07:31:40 -81.32, -69.55 89.26 10/10/2021 07:30:56 -81.31, -69.44 89.28 2.30 44
6 10/10/2021 08:21:07 81.31, 97.80 90.71 10/10/2021 08:21:37 81.31, 97.74 90.73 1.37 30
7 10/13/2021 03:05:56 -81.32, -3.16 88.20 10/13/2021 03:05:16 -81.31, -3.17 88.22 0.84 40
8 10/13/2021 03:55:23 81.30, 164.16 91.77 10/13/2021 03:55:57 81.32, 164.00 91.78 3.32 34
9 10/15/2021 22:40:12 -81.31, 63.18 87.16 10/15/2021 22:39:36 -81.32, 63.08 87.18 1.77 36



Historial Predications of SNOs between LANDSAT-8 and METOP-A
